User: anonymous   Login
Location: Unspecified
(0.0000°N, 0.0000°E)
Time: 19:15:10
(UTC+00:00)
Language:

Mayak - Orbit

View from above orbital plane
View from above orbital plane
View from above satellite
View from above satellite

Ground track
Ground track

The orbit data is extracted from the following two-line orbital elements,

1 42830U 17042F   17266.82154347  .00001049  00000-0  11197-3 0  9993
2 42830  97.6086 173.9586 0015073   9.1080 351.0409 14.90791924 10647
Epoch (UTC): 23 September 2017 19:43:01
Eccentricity: 0.0015073
inclination: 97.6086°
perigee height: 585 km
apogee height: 606 km
right ascension of ascending node: 173.9586°
argument of perigee: 9.1080°
revolutions per day: 14.90791924
mean anomaly at epoch: 351.0409°
orbit number at epoch: 1064

The dashed part of the orbit path shows where the satellite is in the earth's shadow,  

DLR